VK2BOS Weather Reports


time (UTC)temp
C
wind
direction
speed
KPH
gust
KPH
rain 1hr
cm
rain 24hr
cm
rain mn
cm
humidity
%
barometer
mb
20260505083004 16 0 0.0 0.0 0.00 0.00 0.00 74 1016.5
20260505082004 16 0 0.0 0.0 0.00 0.00 0.00 74 1016.4
20260505081003 16 0 0.0 0.0 0.00 0.00 0.00 74 1016.3
20260505080004 16 0 0.0 0.0 0.00 0.00 0.00 74 1016.2
20260505075004 16 0 0.0 0.0 0.00 0.00 0.00 74 1016.0
20260505074003 16 0 0.0 0.0 0.00 0.00 0.00 74 1015.7
20260505073003 16 0 0.0 0.0 0.00 0.00 0.00 74 1015.4
20260505072004 16 0 0.0 0.0 0.00 0.00 0.00 74 1015.4
20260505071003 16 0 0.0 0.0 0.00 0.00 0.00 74 1015.3
20260505070004 16 0 0.0 0.0 0.00 0.00 0.00 74 1015.1
20260505065004 16 0 0.0 0.0 0.00 0.00 0.00 74 1015.0
20260505064003 16 0 0.0 0.0 0.00 0.00 0.00 74 1014.8
20260505063004 16 0 0.0 0.0 0.00 0.00 0.00 74 1014.8
20260505062004 16 0 0.0 0.0 0.00 0.00 0.00 74 1014.7
20260505061003 16 0 0.0 0.0 0.00 0.00 0.00 74 1014.6
20260505060217 16 0 0.0 0.0 0.00 0.00 0.00 74 1014.7
20260505055004 16 0 0.0 0.0 0.00 0.00 0.00 74 1014.6
20260505054004 16 0 0.0 0.0 0.00 0.00 0.00 74 1014.6
20260505053214 16 0 0.0 0.0 0.00 0.00 0.00 74 1014.6
20260505052004 16 0 0.0 0.0 0.00 0.00 0.00 74 1014.6
20260505051004 16 0 0.0 0.0 0.00 0.00 0.00 74 1014.5
20260505041004 16 0 0.0 0.0 0.00 0.00 0.00 74 1013.9
20260505040004 16 0 0.0 0.0 0.00 0.00 0.00 74 1013.8
20260505035004 16 0 0.0 0.0 0.00 0.00 0.00 74 1013.8
20260505034004 16 0 0.0 0.0 0.00 0.00 0.00 74 1013.8
20260505033216 16 0 0.0 0.0 0.00 0.00 0.00 74 1013.9
20260505032004 16 0 0.0 0.0 0.00 0.00 0.00 74 1013.9
20260505031004 16 0 0.0 0.0 0.00 0.00 0.00 74 1014.0
20260505030004 16 0 0.0 0.0 0.00 0.00 0.00 74 1014.2
20260505025004 16 0 0.0 0.0 0.00 0.00 0.00 74 1014.3
20260505024216 16 0 0.0 0.0 0.00 0.00 0.00 74 1014.4
20260505023004 16 0 0.0 0.0 0.00 0.00 0.00 74 1014.4
20260505022003 16 0 0.0 0.0 0.00 0.00 0.00 74 1014.5
20260505021004 16 0 0.0 0.0 0.00 0.00 0.00 74 1014.6
20260505020004 16 0 0.0 0.0 0.00 0.00 0.00 74 1014.7
20260505015003 16 0 0.0 0.0 0.00 0.00 0.00 74 1015.0
20260505014004 16 0 0.0 0.0 0.00 0.00 0.00 74 1015.1
20260505013004 16 0 0.0 0.0 0.00 0.00 0.00 74 1015.2
20260505012004 16 0 0.0 0.0 0.00 0.00 0.00 74 1015.2
20260505011004 16 0 0.0 0.0 0.00 0.00 0.00 74 1015.4
20260505010005 16 0 0.0 0.0 0.00 0.00 0.00 74 1015.4
20260505005004 16 0 0.0 0.0 0.00 0.00 0.00 74 1015.5
20260505004004 16 0 0.0 0.0 0.00 0.00 0.00 74 1015.6
20260505003004 16 0 0.0 0.0 0.00 0.00 0.00 74 1016.0
20260505002004 16 0 0.0 0.0 0.00 0.00 0.00 74 1016.3
20260505001003 16 0 0.0 0.0 0.00 0.00 0.00 74 1016.4
20260505000004 16 0 0.0 0.0 0.00 0.00 0.00 74 1016.5
20260504235005 16 0 0.0 0.0 0.00 0.00 0.00 74 1016.6
20260504234003 16 0 0.0 0.0 0.00 0.00 0.00 74 1016.8
20260504233004 16 0 0.0 0.0 0.00 0.00 0.00 74 1016.9
20260504232004 16 0 0.0 0.0 0.00 0.00 0.00 74 1016.9
20260504231004 16 0 0.0 0.0 0.00 0.00 0.00 74 1017.0
20260504230004 16 0 0.0 0.0 0.00 0.00 0.00 74 1016.9
20260504225004 16 0 0.0 0.0 0.00 0.00 0.00 76 1016.9
20260504224003 15 0 0.0 0.0 0.00 0.00 0.00 77 1016.7
20260504223004 14 0 0.0 0.0 0.00 0.00 0.00 83 1016.5
20260504222004 13 0 0.0 0.0 0.00 0.00 0.00 85 1016.5
20260504221003 12 0 0.0 0.0 0.00 0.00 0.00 86 1016.3
20260504220004 12 0 0.0 0.0 0.00 0.00 0.00 85 1016.2
20260504215004 12 0 0.0 0.0 0.00 0.00 0.00 85 1016.0
20260504214003 15 0 0.0 0.0 0.00 0.00 0.00 92 1015.6
20260504213004 15 0 0.0 0.0 0.00 0.00 0.00 92 1015.5
20260504212004 15 0 0.0 0.0 0.00 0.00 0.00 92 1015.4
20260504211003 15 0 0.0 0.0 0.00 0.00 0.00 92 1015.1
20260504210004 15 0 0.0 0.0 0.00 0.00 0.00 92 1015.2
20260504205005 15 0 0.0 0.0 0.00 0.00 0.00 92 1015.1
20260504204004 15 0 0.0 0.0 0.00 0.00 0.00 92 1014.9
20260504203004 15 0 0.0 0.0 0.00 0.00 0.00 92 1014.9
20260504202004 15 0 0.0 0.0 0.00 0.00 0.00 92 1014.8
20260504201003 15 0 0.0 0.0 0.00 0.00 0.00 92 1014.7
20260504200004 15 0 0.0 0.0 0.00 0.00 0.00 92 1014.7
20260504195004 15 0 0.0 0.0 0.00 0.00 0.00 92 1014.5
20260504194004 15 0 0.0 0.0 0.00 0.00 0.00 92 1014.4
20260504193004 15 0 0.0 0.0 0.00 0.00 0.00 92 1014.3
20260504192217 15 0 0.0 0.0 0.00 0.00 0.00 92 1014.2
20260504191213 15 0 0.0 0.0 0.00 0.00 0.00 92 1014.1
20260504190004 15 0 0.0 0.0 0.00 0.00 0.00 92 1014.2
20260504185004 15 0 0.0 0.0 0.00 0.00 0.00 92 1014.1
20260504184003 15 0 0.0 0.0 0.00 0.00 0.00 92 1014.0
20260504183004 15 0 0.0 0.0 0.00 0.00 0.00 92 1013.9
20260504182004 15 0 0.0 0.0 0.00 0.00 0.00 92 1013.8
20260504181003 15 0 0.0 0.0 0.00 0.00 0.00 92 1013.6
20260504180003 15 0 0.0 0.0 0.00 0.00 0.00 92 1013.6
20260504175004 15 0 0.0 0.0 0.00 0.00 0.00 92 1013.6
20260504174216 15 0 0.0 0.0 0.00 0.00 0.00 92 1013.5
20260504173003 15 0 0.0 0.0 0.00 0.00 0.00 92 1013.5
20260504172004 15 0 0.0 0.0 0.00 0.00 0.00 92 1013.6
20260504171004 15 0 0.0 0.0 0.00 0.00 0.00 92 1013.6
20260504151004 15 0 0.0 0.0 0.00 0.00 0.00 92 1013.5
20260504141004 15 0 0.0 0.0 0.00 0.00 0.00 92 1013.5
20260504130217 15 0 0.0 0.0 0.00 0.00 0.00 92 1013.5